Location: Roanoke
(37.2710°N, 79.9420°W)
Time: 17:31:39
(UTC-04:00)

Daily predictions for brighter satellites

Satellite Brightness Start Highest point End
(mag) Time Altitude Azimuth Time Altitude Azimuth Time Altitude Azimuth
H-2A R/B 4.4 20:02:09 10° WSW 20:07:51 50° S 20:55:16 10° ESE
H-2A R/B 4.4 20:02:09 10° WSW 20:07:51 50° S 20:55:14 10° ESE
H-2A R/B 4.4 20:02:08 10° WSW 20:07:52 50° S 20:55:15 10° ESE
H-2A R/B 4.4 20:02:09 10° WSW 20:07:52 50° S 20:55:18 10° ESE
H-2A R/B 4.4 20:02:09 10° WSW 20:07:52 50° S 20:55:17 10° ESE
H-2A R/B 4.4 20:02:09 10° WSW 20:07:52 50° S 20:55:22 10° ESE
H-2A R/B 4.4 20:02:09 10° WSW 20:07:52 50° S 20:55:21 10° ESE
H-2A R/B 4.4 20:02:09 10° WSW 20:07:52 50° S 20:55:16 10° ESE
H-2A R/B 4.4 20:02:09 10° WSW 20:07:52 50° S 20:55:15 10° ESE
H-2A R/B 4.4 20:02:09 10° WSW 20:07:52 50° S 20:55:11 10° ESE
USA 267 3.7 20:20:21 10° NE 20:26:51 68° NW 20:33:19 10° WSW
CZ-2D R/B 3.8 20:26:19 10° SE 20:29:58 41° ENE 20:33:38 10° N
Spot 2 Rocket 3.6 20:31:12 10° SSE 20:36:13 61° ENE 20:41:14 10° N
Cosmos 1408 3.7 20:35:41 10° NNE 20:38:47 25° ENE 20:41:52 10° SE
FengYun 1-2 T 4.5 20:34:18 10° S 20:39:57 80° WSW 20:45:38 10° NNW
Cosmos 2242 Rocket 4.1 20:37:24 10° SSE 20:41:36 39° E 20:45:46 10° NNE
DELTA 2 R/B (1) 4.4 20:40:36 10° W 20:45:53 43° SSW 20:51:10 10° SE
ALOS 3.3 20:42:02 10° S 20:46:32 49° W 20:51:04 10° NNW
Milstar 3 3.6 20:41:39 10° WSW 20:50:11 43° S 20:55:57 12° ESE
Cosmos 1862 4.4 20:50:42 10° NNE 20:54:12 28° ENE 20:57:01 14° SE
Cosmos 220 Rocket 4.2 20:50:01 10° N 20:54:26 58° ENE 20:58:48 10° SSE
Envisat 3.5 20:51:36 10° SE 20:56:19 40° ENE 21:01:03 10° N
Meteor 1-29 3.7 20:53:25 10° NNE 20:56:34 32° E 20:59:40 10° SSE
Cosmos 2227 4.4 20:52:16 10° NNW 20:58:00 77° WSW 21:03:40 10° SSE
ATLAS CENTAUR R/B 3.6 20:56:16 10° WNW 20:58:59 29° SW 21:04:50 10° SSE
USA 234 4.0 20:53:53 11° E 20:59:46 41° NE 21:05:48 10° NNW
Resurs 01 Rocket 2.1 20:57:31 10° S 21:01:55 63° W 21:06:21 10° NNW
Intercosmos 25 Rocket 3.0 21:00:06 10° S 21:03:11 57° E 21:06:56 10° NNE
Cosmos 1455 4.2 21:02:18 10° SW 21:05:43 31° WNW 21:09:08 10° NNW
CZ-3B DEB 3.6 21:04:27 10° W 21:05:43 11° WSW 21:06:48 10° SW
Cosmos 1939 Rocket 3.5 21:05:54 17° SE 21:08:37 38° ENE 21:12:21 10° N
OAO 3 Rocket 3.3 21:04:54 10° W 21:09:45 68° S 21:13:18 19° ESE
SEDSat Delta rocket 4.0 21:05:38 10° WSW 21:10:29 44° S 21:14:20 19° ESE
YAOGAN 6 4.0 21:10:21 19° E 21:11:26 22° ENE 21:14:15 10° NNE
H-II Stage 2 4.5 21:13:38 10° S 21:14:45 11° S 21:16:08 10° SSE
Helios 1B rocket 2.3 21:12:32 10° NNE 21:16:39 83° ESE 21:20:44 10° SSW
Lacrosse 4 Rocket 1.4 21:12:25 10° NNW 21:16:47 85° ENE 21:19:57 19° SSE
Meteor 2-10 Rocket 4.2 21:15:01 10° SSE 21:20:27 42° E 21:25:53 10° NNE
Atlas Centaur 2 3.2 21:14:09 10° SW 21:20:30 44° SSE 21:25:41 20° ESE
ERBS 3.4 21:21:05 10° WNW 21:24:21 39° SW 21:26:20 20° S
ERS-1 Rocket 3.7 21:22:05 23° ESE 21:24:27 35° ENE 21:28:59 10° N
Sakura Rocket 4.4 21:22:03 10° SSW 21:24:56 20° SSE 21:25:00 20° SSE
Cosmos 1908 Rocket 4.5 21:22:25 10° NNE 21:26:14 29° ENE 21:27:14 26° ESE
Cosmos 2026 Rocket 4.1 21:25:34 10° N 21:31:47 76° W 21:37:51 10° S
SeaSat 1 4.2 21:31:06 15° ENE 21:32:48 18° NE 21:36:02 10° N
Cosmos 2263 Rocket 2.1 21:27:56 10° NNW 21:33:31 70° ENE 21:36:40 26° SE
SJ-11-01 4.2 21:33:16 19° SSE 21:36:35 89° ENE 21:41:16 10° NNW
Cosmos 2322 Rocket 3.3 21:34:22 10° SW 21:39:43 45° WNW 21:45:07 10° N
CZ-4B DEB 3.0 21:38:38 32° SSW 21:39:48 60° W 21:42:49 10° NNW
USA 229 DEB 3.7 21:35:35 10° SSW 21:42:12 57° ESE 21:48:56 10° NE
USA 229 3.7 21:35:42 10° SSW 21:42:18 57° ESE 21:49:02 10° NE
COSMOS 2428 3.4 21:43:30 30° ESE 21:43:44 31° ESE 21:48:39 10° NE
Cosmos 1733 Rocket 3.4 21:40:37 10° NNW 21:45:03 66° W 21:48:10 19° S
Cosmos 2360 Rocket 2.1 21:42:59 10° SSW 21:48:38 81° ESE 21:54:19 10° NNE
Cosmos 1862 Rocket 4.3 21:46:42 10° SSW 21:51:02 53° W 21:55:27 10° N
USA 186 4.4 21:49:35 10° SW 21:51:07 14° W 21:52:43 10° WNW
Cosmos 1825 3.9 21:48:37 10° NNW 21:52:01 31° W 21:55:15 11° SSW
Okean 1-7 3.8 21:56:11 36° ENE 21:56:11 36° ENE 21:59:42 10° NNE
NOAA 11 4.3 21:58:34 42° ESE 22:00:07 56° ENE 22:05:29 10° N
MetOp-B 4.3 22:00:03 43° ESE 22:01:22 55° ENE 22:06:35 10° N
Cosmos 2322 3.6 21:55:42 10° SSW 22:01:25 88° ESE 22:07:09 10° NNE
SPOT 5 3.3 22:02:05 41° E 22:02:25 41° ENE 22:06:49 10° N
SL-16 R/B 4.3 22:04:24 10° WSW 22:09:10 27° WNW 22:13:57 10° N
ATLAS 5 CENTAUR R/B 2.4 22:03:22 10° NNW 22:09:29 81° ENE 22:11:35 46° SE
Cosmos 1703 Rocket 3.5 22:10:28 57° S 22:11:21 88° W 22:15:48 10° N
ARGOS 3.2 22:15:14 53° ESE 22:15:53 57° ENE 22:21:09 10° N
Cosmos 2266 Rocket 3.9 22:14:02 10° N 22:20:22 89° E 22:22:35 44° S
Cosmos 2333 4.1 22:23:21 61° ESE 22:23:29 61° ESE 22:29:09 10° NNE
YAOGAN 11 4.0 22:23:44 84° NNE 22:23:44 84° NNE 22:27:58 10° NNW
Cosmos 2333 Rocket 3.8 22:26:29 20° ENE 22:26:29 20° ENE 22:28:36 10° NE
Cosmos 2237 Rocket 4.4 22:29:25 12° ENE 22:29:25 12° ENE 22:29:59 10° NE
Cosmos 2221 Rocket 3.5 22:26:56 80° WNW 22:26:56 80° WNW 22:31:18 10° N
Cosmos 968 Rocket 3.6 22:21:49 10° NNW 22:27:00 69° WSW 22:27:52 57° SSW
H-2A R/B 2.5 22:31:00 44° NE 22:31:00 44° NE 22:35:10 10° N
Cosmos 1867 3.5 22:25:44 10° NNW 22:31:12 78° WSW 22:31:43 70° S
Cosmos 2278 Rocket 3.9 22:27:42 10° N 22:31:42 19° NE 22:31:49 19° NE
SL-08 RB Rocket 4.0 22:35:33 59° NNE 22:35:33 59° NNE 22:39:24 10° N
Cosmos 1844 Rocket 3.1 22:30:34 10° N 22:35:50 48° ENE 22:35:50 48° ENE
Cosmos 1782 4.5 22:42:03 28° NNE 22:42:03 28° NNE 22:44:03 10° N
USA 234 3.5 22:41:13 49° S 22:42:34 58° SW 22:49:00 10° NW
Cosmos 1244 Rocket 4.5 22:38:29 10° N 22:44:42 64° E 22:44:46 64° E
CZ-4C R/B 4.0 22:43:56 10° NNW 22:50:10 31° NE 22:51:55 28° ENE
Cosmos 1553 Rocket 4.4 22:52:38 47° ENE 22:52:38 47° ENE 22:57:39 10° NNE
Cosmos 2219 Rocket 2.8 22:54:47 44° NE 22:54:47 44° NE 22:58:38 10° NNE
H-2A R/B 3.7 22:57:30 28° NNE 22:57:30 28° NNE 22:59:44 10° N
Terra 3.1 22:57:32 32° NNE 22:57:32 32° NNE 23:00:27 10° N
Atlas Centaur 2 3.3 23:02:32 10° WSW 23:08:19 47° SW 23:08:19 47° SW
SeaSat 1 3.2 23:10:54 49° WNW 23:10:54 49° WNW 23:14:45 10° NNW
SPOT 1/Viking Rocket 4.4 23:18:47 46° WNW 23:18:47 46° WNW 23:23:06 10° NNW
S3M 4.2 23:22:43 62° NNE 23:22:43 62° NNE 23:27:48 10° N
Meteor 1-11 Rocket 4.4 23:19:24 10° N 23:23:21 48° N 23:23:21 48° N
COSMOS 2428 4.1 23:25:21 24° WSW 23:27:52 34° WNW 23:33:02 10° N
NOSS 3-1 (C) 3.7 23:28:27 60° NW 23:28:27 60° NW 23:34:27 10° NNE
NOSS 3-1 (A) 4.1 23:45:12 49° N 23:45:12 49° N 23:50:01 10° NNE
ATLAS 2AS CENTAUR R/B 4.5 23:48:54 22° ENE 23:48:54 22° ENE 23:51:59 10° NE
SL-16 R/B 4.3 23:50:52 18° NE 23:50:52 18° NE 23:52:16 10° NE
